www.pogodaiklimat.ru

Погода и климат >> Архив погоды >> Аргентина >> Сан-Мартин


ПОГОДА в Сан-Мартине

  • Прогноз погоды в Сан-Мартине
  • Монитор погоды в Сан-Мартине

АРХИВ ПОГОДЫ в Сан-Мартине

Время (UTC), дата Ветер
(напр.,м/с)
 
Видим.   Явления Облачность Т
(С)
Тd
(С)
f
(%)
Тe
(С)
Тes
(С)
Комфортность P
(гПа)
Po
(гПа)
Тmin
(С)
Tmax
(С)
R
(мм)
R24
(мм)
S
(см)
15 16.01 С 3 15 км ясно +30.6 +14.1 37 +32 +49 жарко 1001.8 930.6
18 16.01 С 1 15 км 3/3 1200 м
[Cu hum]
+34.1 +11.6 25 +34 +49 очень
жарко
999.5 928.5
21 16.01 В 1 15 км 5/4 1200 м
[Cb cap Ci ing]
+33.5 +13.1 29 +34 +38 очень
жарко
998.5 927.2
00 17.01 ЮЗ 7 6000 м гроза без осадков 10/8 900 м
[Cb cap Ac As]
+27.8 +8.7 30 +28 +28 жарко 1002.6 930.9 +22.0 +35.5
03 17.01 ЮЗ 4 10 км {гроза, ливн. осадки} 10/8 900 м
[Cb cap Ac As]
+18.2 +12.3 68 +18 +18 1012.0 939.4
06 17.01 Ю 3 10 км {гроза, ливн. осадки} 10/8 900 м
[Cu med, cong Ac As]
+17.4 +12.5 73 +18 +18 1014.0 941.7 6
09 17.01 ЮЗ 1 15 км 10/8 1050 м
[Cu med, cong Ac As]
+16.8 +11.8 72 +18 +18 1015.0 942.5
12 17.01 штиль 0 10 км слаб. морось 10/4 1050 м
[Sc As op]
+17.2 +12.1 72 +17 +18 1018.9 945.4 +16.3 +27.8 0.0
15 17.01 штиль 0 8000 м слаб. морось 10/10 600 м
[Frnb]
+15.6 +12.6 82 +15 +15 1021.2 946.2
18 17.01 штиль 0 12 км {морось} 10/10 750 м
[St]
+17.3 +12.0 71 +17 +17 1020.6 945.8 3
21 17.01 штиль 0 6000 м слаб. морось 10/10 600 м
[St]
+16.7 +13.6 82 +17 +17 1020.2 945.3
00 18.01 ЮВ 1 15 км {морось} 9/9 1050 м
[Sc]
+16.6 +13.1 80 +17 +17 1020.7 945.8 +15.3 +18.5
03 18.01 штиль 0 15 км ясно +14.4 +12.3 87 +14 +14 1021.7 946.2
06 18.01 штиль 0 15 км ясно +12.6 +10.7 88 +12 +12 1020.9 945.4
09 18.01 штиль 0 15 км ясно +10.8 +9.6 92 +10 +10 1020.5 944.8
12 18.01 ЮЗ 1 15 км ясно +15.1 +11.1 77 +16 +22 1020.1 945.0 +9.6 +16.6 3
15 18.01 В 1 15 км ясно +21.6 +7.6 40 +23 +44 комфорт 1018.5 944.0
18 18.01 СЗ 3 15 км 1/1 1200 м
[Cu hum]
+24.6 +7.5 34 +25 +40 комфорт 1015.6 941.4
21 18.01 С 3 15 км ясно +26.1 +7.8 31 +26 +31 жарко 1012.9 938.9
00 19.01 штиль 0 15 км ясно +22.3 +9.4 44 +24 +24 комфорт 1013.8 939.8 +15.1 +26.5
03 19.01 штиль 0 15 км ясно +17.9 +9.9 59 +18 +18 1014.6 940.8
06 19.01 штиль 0 15 км ясно +16.0 +9.9 67 +16 +16 1013.5 939.8
09 19.01 штиль 0 15 км ясно +14.7 +10.7 77 +14 +14 1013.4 939.8
12 19.01 СЗ 3 15 км ясно +19.6 +12.7 64 +21 +26 комфорт 1013.3 939.8 +12.4 +22.3
15 19.01 СВ 7 15 км ясно +26.8 +12.2 40 +28 +34 жарко 1011.3 938.4
18 19.01 СВ 4 15 км ясно +30.1 +10.6 30 +30 +43 жарко 1008.5 936.0
21 19.01 С 7 15 км ясно +30.9 +10.4 28 +31 +32 жарко 1006.5 934.0
00 20.01 СВ 4 15 км ясно +26.6 +11.9 40 +28 +28 жарко 1007.1 934.6 +19.6 +31.5
03 20.01 СВ 7 15 км ясно +22.3 +10.3 47 +24 +24 комфорт 1007.7 935.6
06 20.01 штиль 0 15 км ясно +18.8 +11.8 64 +19 +19 1006.5 934.4
09 20.01 штиль 0 15 км ясно +16.6 +11.8 73 +17 +17 1005.9 933.7
12 20.01 СВ 3 15 км 1/0
[Ac As Ci]
+19.6 +12.3 63 +21 +26 комфорт 1006.6 934.2 +15.9 +26.6
15 20.01 СЗ 7 15 км 1/0
[Ci]
+26.4 +13.6 45 +28 +34 жарко 1004.9 932.9
18 20.01 СЗ 3 15 км 1/0
[Ac As]
+30.9 +13.2 34 +32 +48 жарко 1001.7 930.1
21 20.01 СЗ 3 15 км 1/0
[Ci]
+32.4 +13.0 31 +33 +38 жарко 999.9 928.2
00 21.01 штиль 0 15 км 5/0
[Cs]
+27.7 +14.7 45 +30 +30 жарко 1001.3 929.4 +19.6 +33.2
03 21.01 штиль 0 15 км 3/0
[Ci]
+23.7 +15.1 59 +27 +27 жарко 1003.1 931.4
06 21.01 штиль 0 15 км 4/0
[Cs]
+21.2 +15.9 72 +25 +25 комфорт 1003.2 931.7
09 21.01 штиль 0 15 км 3/0
[Ci]
+19.6 +16.0 80 +22 +22 комфорт 1005.0 933.4
12 21.01 штиль 0 15 км 4/0
[Ci]
+22.7 +16.5 68 +27 +33 душно 1008.0 936.0 +17.6 +27.7
15 21.01 ЮВ 1 15 км ясно +29.9 +14.6 39 +32 +53 опасность
солнечного
удара
1007.3 935.7
18 21.01 штиль 0 15 км 5/5 1350 м
[Cu hum]
+33.1 +14.7 33 +35 +47 душно 1003.9 932.6
21 21.01 штиль 0 15 км ясно +33.0 +11.6 27 +33 +40 жарко 1001.6 930.2
00 22.01 штиль 0 15 км ясно +29.0 +14.6 41 +31 +31 жарко 1002.9 931.4 +22.7 +34.4
03 22.01 штиль 0 15 км 4/0
[Ci]
+25.2 +14.3 51 +28 +28 жарко 1003.9 932.6
06 22.01 штиль 0 15 км 4/0
[Ci]
+21.8 +15.7 68 +25 +25 комфорт 1002.6 931.4
09 22.01 штиль 0 15 км 5/0
[Ci]
+20.9 +15.5 71 +24 +24 комфорт 1002.2 931.0
12 22.01 СВ 1 15 км 4/0
[Ci]
+25.0 +16.1 58 +28 +34 жарко 1003.6 932.2 +20.3 +29.0
15 22.01 ЮВ 1 15 км 3/0
[Ci]
+31.4 +17.0 42 +35 +55 опасность
солнечного
удара
1002.4 931.4
18 22.01 ЮВ 1 15 км 4/0
[Ci]
+36.2 +15.6 29 +38 +58 опасность
солнечного
удара
999.2 928.6
21 22.01 ЮВ 1 15 км 6/0
[Ci]
+37.0 +17.6 32 +40 +46 очень
душно
998.5 928.0
00 23.01 штиль 0 15 км 1/0
[Ac As]
+32.8 +19.4 45 +38 +38 очень
душно
1000.0 929.4 +25.0 +37.5
03 23.01 штиль 0 15 км ясно +27.8 +18.2 56 +33 +33 очень
душно
1002.4 931.8
06 23.01 штиль 0 15 км ясно +26.0 +16.2 55 +29 +29 душно 1002.2 931.8
09 23.01 штиль 0 15 км ясно +24.7 +12.6 47 +27 +27 жарко 1003.6 933.2
12 23.01 штиль 0 15 км 1/0
[Cs]
+27.3 +9.0 32 +27 +34 жарко 1006.3 935.4 +24.1 +32.8

 

Местоположение метеостанции Сан-Мартин (Аргентина): широта -33.08 долгота -68.41 высота над уровнем моря 653 м.

В архиве по умолчанию представлена погода в Сан-Мартине за последнюю неделю. Архивные данные за месяц целиком и за предыдущие месяцы, начиная с января 2011 года, Вы можете получить, выбрав интересующий диапазон дат из раскрывающегося списка и нажав кнопку "Ввод!".


*Определитесь, кто Вы:
робот инопланетянин человек

Внимание! Время в таблицах - всемирное. Для получения местного времени необходимо прибавить поправку, которая равна -3 ч.

Смотрите также архив погоды в соседних городах и на ближайших метеорологических станциях:

Погода в Мендосе (Аргентина) (44 км)
Погода в Сан-Рафаэле (Аргентина) (167 км)
Погода в Сан-Хуане (Аргентина) (187 км)
Погода в Сан-Луисе (Аргентина) (193 км)
Погода в Сантьяго (Чили) (215 км)
Погода в Пудауэле (Чили) (223 км)
Погода в Маларгуэ (Аргентина) (290 км)
Погода в Вилья Рейнольдс (Аргентина) (290 км)
Погода в Пунта-Анджелесе (Чили) (301 км)
Погода в Сан-Антонио (Чили) (302 км)

Пояснения к столбцам:

Ветер - указаны скорость ветра в м/с - средняя за 10 мин, порывы в срок и между сроками (в фигурных скобках) и направление, откуда дует ветер: С - северный, СВ - северо-восточный, В - восточный, ЮВ - юго-восточный, Ю - южный, ЮЗ - юго-западный, З - западный, СЗ - северо-западный.
Видимость - горизонтальная дальность видимости в метрах или километрах. При видимости от 1 до 10 км при отсутствии осадков обычно наблюдается дымка, при ухудшении видимости до 1 км и менее - туман. В сухую погоду видимость может ухудшаться дымом, пылью или мглою.
Явления - указаны атмосферные явления, наблюдавшиеся в срок или в последний час перед сроком; фигурными скобками обозначены явления, наблюдавшиеся между сроками (за 1-3 часа до срока); квадратными скобками обозначены град или гололедные отложения с указанием их диаметра в мм.
Облачность - указаны через наклонную черту общая и нижняя облачность в баллах и высота нижней границы облаков в метрах; квадратными скобками обозначены формы облаков: Ci - перистые, Cs - перисто-слоистые, Cc - перисто-кучевые, Ac - высококучевые, As - высокослоистые, Sc - слоисто-кучевые, Ns - слоисто-дождевые, Cu - кучевые, Cb - кучево-дождевые. Подробнее классификацию облаков см. в Атласе облаков (PDF).
T - Температура воздуха - температура, измеренная на высоте 2 м над землей.
Td - Температура точки росы - температура, при понижении до которой содержащийся в воздухе водяной пар достигнет насыщения.
f - Относительная влажность воздуха - влажноcть воздуха, измеренная на высоте 2 м над землей.
Te - Эффективная температура - температура, которую ощущает одетый по сезону человек в тени. Характеристика душности погоды. При расчете учитывается влияние влажности воздуха и скорости ветра на теплоощущения человека.
Tes - Эффективная температура на солнце - температура, которую ощущает человек, с поправкой на солнечный нагрев. Характеристика знойности погоды. Зависит от высоты солнца над горизонтом, облачности и скорости ветра. Ночью, в пасмурную погоду, а также при ветре 12 м/с и более поправка равна нулю.
P - Атмосферное давление - приведенное к уровню моря атмосферное давление.
Po - Атмосферное давление - измеренное на уровне метеостанции атмосферное давление.
Tmin - Минимальная температура - минимум температуры воздуха на высоте 2 м над землей.
Tmax - Максимальная температура - максимум температуры воздуха на высоте 2 м над землей.
R - Количество осадков - Количество выпавших осадков за период времени, мм. При наведении курсора мыши на число - период времени, за который выпало указанное количество осадков.
R24 - Количество осадков - Количество выпавших осадков за 24 часа, мм.
S - Снежный покров - Высота снежного покрова, см. При наведении курсора мыши на число - состояние снежного покрова и степень покрытия местности в баллах.